Etusivu
METAR-TAF:

METAR-TAF

Lentoasemat :

Fergus Falls Municipal Airport (Einar Mickelson Field)

Fergus Falls, Minnesota, Yhdysvallat

Leveyspiiri: 46-17N, Pituuspiiri: 096-09W, korkeus merenpinnasta: 616 m

Tämänhetkinen sää

Tämä raportti tehtiin 28 minuuttia sitten, kello 16.59 UTC
tyyntä
Lämpötila 4°C
Kosteus 87%
Ilmanpaine 1021 hPa
Näkyvyys: 16.1 km
Pilvistä 900 ft:n korkeudessa

METAR: KFFM 161659Z AUTO 00000KT 10SM OVC009 04/02 A3015 RMK AO2

Aika: 12:27 (17:27 UTC)


TAF: puuttuu

Säähavainnot ja -ennusteet yli 4000 lentoasemalta (METAR- ja TAF-raportit).

Käytössä olevat sääasemat on merkitty karttaan keltaisilla ja punaisilla pisteillä.

Aseta hiiri pisteen päälle nähdäksesi sääaseman nimen.

Klikkaa sitten nähdäksesi säähavainnot ja -ennusteet.

Kartan vaihtaminen: klikkaa mustalla rastilla varustettuja vihreitä pisteitä, niin voit zoomata sisään; viivalla varustettua vihreää pistettä, niin voit zoomata ulos tai vihreitä nuolia, niin pääset viereisille kartoille.


METAR-TAF: